This demonstration page uses our WeatherBlox Daily Observations layout. Learn more.

Left ArrowRight Arrow

53.62937, 11.41316

Hourly Observations for March 8, 2018

Temp ( °F °C ) Dew Point ( °F °C ) Humidity (%) Winds ( mph kmh ) Pressure ( in mb ) Visibility ( mi km ) Precip ( " mm )
6:50 am 06:50 Cloudy with Mist and Fog 32 0 32 0 100 100 VRB 2 4 29.47 998 1 1 N/A
7:20 am 07:20 Partly Cloudy with Mist and Fog 34 1 34 1 100 100 S 5 7 29.47 998 1 1 N/A
7:50 am 07:50 Mostly Cloudy with Mist and Fog 34 1 34 1 100 100 SSE 3 6 29.47 998 1 2 N/A
8:20 am 08:20 Cloudy with Mist and Fog 34 1 34 1 100 100 VRB 2 4 29.47 998 1 1 N/A
8:50 am 08:50 Mostly Cloudy with Mist and Fog 34 1 34 1 100 100 VRB 1 2 29.47 998 1 1 N/A
9:20 am 09:20 Cloudy with Mist and Fog 36 2 36 2 100 100 S 5 7 29.50 999 1 1 N/A
9:50 am 09:50 Cloudy with Drizzle 36 2 36 2 100 100 SSW 5 7 29.50 999 0 1 N/A
10:20 am 10:20 Cloudy with Light Rain 36 2 36 2 100 100 WSW 7 11 29.50 999 1 2 N/A
10:50 am 10:50 Mostly Cloudy with Light Rain/Snow 36 2 36 2 100 100 WSW 7 11 29.50 999 2 3 N/A
11:20 am 11:20 Mostly Cloudy with Light Rain 36 2 36 2 100 100 SW 3 6 29.50 999 3 5 N/A
11:50 am 11:50 Mostly Cloudy 37 3 37 3 100 100 SW 5 7 29.53 1000 4 6 N/A
12:20 pm 12:20 Mostly Cloudy 37 3 34 1 87 87 SSW 3 6 29.53 1000 3 5 N/A
12:50 pm 12:50 Mostly Cloudy with Mist and Fog 39 4 39 4 100 100 SSW 6 9 29.53 1000 3 5 N/A
1:20 pm 13:20 Mostly Cloudy 41 5 39 4 93 93 SW 8 13 29.50 999 4 6 N/A
1:50 pm 13:50 Mostly Cloudy 43 6 37 3 81 81 WSW 10 17 29.50 999 6 9 N/A
2:20 pm 14:20 Partly Cloudy 45 7 37 3 76 76 SSW 7 11 29.50 999 30 48 N/A
2:50 pm 14:50 Mostly Sunny 45 7 37 3 76 76 SSW 7 11 29.50 999 30 48 N/A
3:20 pm 15:20 Mostly Sunny 45 7 37 3 76 76 SSW 8 13 29.50 999 30 48 N/A
3:50 pm 15:50 Mostly Sunny 46 8 37 3 71 71 S 6 9 29.47 998 7 11 N/A
4:20 pm 16:20 Mostly Sunny 46 8 37 3 71 71 SSE 5 7 29.47 998 7 11 N/A
4:50 pm 16:50 Mostly Sunny 45 7 36 2 71 71 SSE 3 6 29.44 997 7 11 N/A
5:20 pm 17:20 Mostly Sunny 45 7 37 3 76 76 SE 3 6 29.44 997 7 11 N/A
5:50 pm 17:50 Mostly Sunny 45 7 37 3 76 76 SSE 5 7 29.44 997 7 11 N/A
6:20 pm 18:20 Mostly Cloudy 45 7 36 2 71 71 S 5 7 29.44 997 30 48 N/A

Powered by AerisWeather